Torna al catalogo

STARLINK-5337

AttivoComunicazioniVLEO
NORAD 55284·PAYLOAD·🇺🇸 United States

Lanciato Jan 19, 2023 da Vandenberg Space Force Base

Loading…

Prossimi Passaggi (prossime 24 ore)

TLE

AggiornatoSource: CelesTrak SupGP

Epoca: Sep 15, 2026, 01:33 UTC

1 55284C 23010R   26258.06506944  .00019764  00000+0  16558-2 0  2588
2 55284  69.9996 286.7990 0003732 266.5997 204.8722 14.98331180    18

Traccia STARLINK-5337 in tempo reale con AllMySat

Download on the App Store